Regional Weather Roundup
Issued by NWS

Home | Current Version | Previous Version | Text Only | Print | Product List | Glossary Off
Versions: 1 2 3 4 5 6 7 8 9 10 11 12 13 14 15 16 17 18 19 20 21 22 23 24 25 26 27

000
ASUS45 KCYS 190010
RWRWY

WYOMING REGIONAL WEATHER ROUNDUP
NATIONAL WEATHER SERVICE CHEYENNE WY
600 PM MDT MON SEP 18 2017

NOTE:  "FAIR" INDICATES FEW OR NO CLOUDS BELOW 12,000 FEET
WITH NO SIGNIFICANT WEATHER AND/OR OBSTRUCTIONS TO VISIBILITY.

WYZ001-190100-
YELLOWSTONE NATIONAL PARK

CITY           SKY/WX    TMP DP  RH WIND       PRES   REMARKS
LK YELLOWSTONE   N/A     46  36  68 W8G18     29.93R
6HR MIN TEMP:  46; 6HR MAX TEMP:  55;

W YELLOWSTONE  NOT AVBL

$$
WYZ002>013-054>058-071-098>099-190100-
NORTHERN WYOMING

CITY           SKY/WX    TMP DP  RH WIND       PRES   REMARKS
JACKSON        NOT AVBL
CODY           FAIR      71  28  20 SW22G32   29.69F
GREYBULL       FAIR      79  28  15 SW13      29.62F
6HR MIN TEMP:  58; 6HR MAX TEMP:  79;

WORLAND        FAIR      74  40  29 SW6       29.68F
6HR MIN TEMP:  67; 6HR MAX TEMP:  80;

SHERIDAN       FAIR      75  38  26 E6        29.65F
6HR MIN TEMP:  69; 6HR MAX TEMP:  78;

BUFFALO        FAIR      73  27  18 S14G24    29.73F
6HR MIN TEMP:  66; 6HR MAX TEMP:  78;

GILLETTE       FAIR      71  38  29 S7        29.71F
6HR MIN TEMP:  71; 6HR MAX TEMP:  77;

HULETT         FAIR      72  34  25 S7        29.75F
NEWCASTLE      FAIR      73  32  21 E7        29.77F

$$
WYZ014>020-022>026-101>103-190100-
CENTRAL WYOMING

CITY           SKY/WX    TMP DP  RH WIND       PRES   REMARKS
BIG PINEY      PTSUNNY   65  31  28 SW15      29.90F
6HR MIN TEMP:  54; 6HR MAX TEMP:  69;

PINEDALE       MOCLDY    63  30  29 SW12G18   29.91F
DUBOIS         MOCLDY    55  32  41 W12G29    29.89S
LANDER         NOT AVBL
RIVERTON       FAIR      72  30  21 W8        29.77F
6HR MIN TEMP:  61; 6HR MAX TEMP:  76; 6HR PCP: TRACE;

CASPER         FAIR      74  29  19 SW23G29   29.80F
6HR MIN TEMP:  69; 6HR MAX TEMP:  79; 6HR PCP: TRACE;

DOUGLAS        FAIR      76  27  16 SW12      29.82S
6HR MIN TEMP:  74; 6HR MAX TEMP:  82;


$$
WYZ021-027>030-104>119-190100-
SOUTHERN WYOMING

CITY           SKY/WX    TMP DP  RH WIND       PRES   REMARKS
EVANSTON       FAIR      67  31  26 SW23G35   29.91F
6HR MIN TEMP:  66; 6HR MAX TEMP:  72;

KEMMERER         N/A     64  28  25 SW24G31   29.92F
FORT BRIDGER   FAIR      71  28  20 W26G33    29.94F
ROCK SPRINGS   FAIR      67  28  23 S20G29    29.91F
6HR MIN TEMP:  67; 6HR MAX TEMP:  72;

DIXON          FAIR      72  29  20 SW16      29.98F
RAWLINS        FAIR      69  24  18 SW23G32   29.94F
6HR MIN TEMP:  68; 6HR MAX TEMP:  72;

SARATOGA       FAIR      70  28  21 MISG      29.99S
LARAMIE        FAIR      69  24  18 SW10      29.99F
6HR MIN TEMP:  66; 6HR MAX TEMP:  73;

CHEYENNE       FAIR      73  28  18 S15       29.95S
6HR MIN TEMP:  70; 6HR MAX TEMP:  78;

TORRINGTON     NOT AVBL
PINE BLUFFS    FAIR      75  28  17 S10       29.91S

$$




USA.gov is the U.S. government's official web portal to all federal, state and local government web resources and services.